This is the latest recevied weather packets stored in our database for station/object N9BLE. If no packets are shown the sender has not sent any weather packets the latest 10 day(s).
| Time | Temp. | Humidity | Pressure | Rain* | Wind** | Luminosity | Snow |
|---|---|---|---|---|---|---|---|
| 1777988744 | 10° C | 62% | 1013.3 hPa | 0 mm | - | 119 W/m² | - |
| 1777988442 | 9.44° C | 65% | 1013.4 hPa | 0 mm | - | 111 W/m² | - |
| 1777988139 | 9.44° C | 65% | 1013.4 hPa | 0 mm | - | 83 W/m² | - |
| 1777987834 | 9.44° C | 61% | 1013.4 hPa | 0 mm | - | 92 W/m² | - |
| 1777987532 | 9.44° C | 62% | 1013.5 hPa | 0 mm | - | 97 W/m² | - |
| 1777987229 | 9.44° C | 63% | 1013.5 hPa | 0 mm | - | 93 W/m² | - |
| 1777986925 | 9.44° C | 65% | 1013.4 hPa | 0 mm | - | 96 W/m² | - |
| 1777986624 | 8.89° C | 64% | 1013.5 hPa | 0 mm | - | 104 W/m² | - |
| 1777986321 | 8.89° C | 69% | 1013.5 hPa | 0 mm | - | 99 W/m² | - |
| 1777986020 | 8.89° C | 70% | 1013.4 hPa | 0 mm | - | 99 W/m² | - |
| 1777985716 | 8.89° C | 72% | 1013.2 hPa | 0 mm | - | 88 W/m² | - |
| 1777985413 | 8.89° C | 72% | 1013 hPa | 0 mm | - | 74 W/m² | - |
| 1777985109 | 8.33° C | 72% | 1012.7 hPa | 0 mm | - | 67 W/m² | - |
| 1777984806 | 8.33° C | 70% | 1012.4 hPa | 0 mm | - | 60 W/m² | - |
| 1777984503 | 8.33° C | 71% | 1012.8 hPa | 0 mm | - | 39 W/m² | - |
| 1777984198 | 8.33° C | 67% | 1012.9 hPa | 0 mm | - | 25 W/m² | - |
| 1777983896 | 8.33° C | 67% | 1012.9 hPa | 0 mm | - | 26 W/m² | - |
| 1777983592 | 8.33° C | 66% | 1013.6 hPa | 0 mm | - | 17 W/m² | - |
| 1777983289 | 7.78° C | 65% | 1013 hPa | 0 mm | - | 17 W/m² | - |
| 1777982985 | 7.78° C | 68% | 1012.5 hPa | 0 mm | - | 7 W/m² | - |
| 1777982682 | 7.78° C | 69% | 1012.8 hPa | 0 mm | - | 6 W/m² | - |
| 1777982381 | 7.78° C | 67% | 1012.7 hPa | 0 mm | - | 7 W/m² | - |
| 1777982077 | 7.78° C | 69% | 1012.5 hPa | 0 mm | - | 7 W/m² | - |
| 1777981776 | 7.78° C | 68% | 1012.8 hPa | 0 mm | - | 6 W/m² | - |
| 1777981471 | 7.78° C | 68% | 1013.1 hPa | 0 mm | - | 5 W/m² | - |
* Rain latest hour (hover to see other rain measurements)
** Current wind speed in m/s (hover to see current wind gust speed)